Flag for U.S.A. Weather past 2 weeks in Albuquerque, New Mexico, U.S.A.

Now
72 °F

More clouds than sun.


Feels Like: 77 °F
Forecast: 60 / 79 °F
Wind: 3 mph from West

Location: Albuquerque International Airport

Current Time: Sep 4, 2015 at 11:09:22 AM

Latest Report: Sep 4, 2015 at 9:52 AM


Visibility: 10 mi

Pressure: 29.89 "Hg (25.10 "Hg at 1510m altitude)

Humidity: 49%

Dew point: 52 °F

Location of AlbuquerqueLocation

Historic Weather in Albuquerque — Graph

°F

Albuquerque temperature yesterday

Maximum temperature yesterday: 86 °F (at 4:52 PM)
Minimum temperature yesterday: 64 °F (at 6:52 AM)
Average temperature yesterday: 75 °F

Past Weeks' High & Low Weather Summary

 TemperatureHumidityPressure
High93 °F (Aug 20, 5:52 PM)87% (Aug 27, 5:52 AM)30.30 "Hg (Aug 27, 5:52 AM)
Low64 °F (Aug 22, 6:52 AM)9% (Aug 20, 6:52 PM)29.69 "Hg (Aug 20, 5:52 PM)
Average77 °F40%29.94 "Hg
* Reported Aug 20 9:52 AM — Sep 4 9:52 AM, Albuquerque, Weather by CustomWeather, © 2015

Note: Actual official high and low records may vary slightly from our data, if they occured in-between our weather recording intervals... More about our weather records

Advertising

Albuquerque weather history for previous 24 hours

 ConditionsComfort  
Time TempWeatherWind HumidityBarometerVisibility
9:52 AM
Fri, Sep 4
72 °FMore clouds than sun.3 mph49%29.89 "Hg10 mi
8:52 AM71 °FLight rain. Cloudy.7 mph45%29.87 "Hg10 mi
7:52 AM68 °FOvercast.6 mph51%29.85 "Hg10 mi
6:52 AM67 °FPassing clouds.5 mph55%29.84 "Hg10 mi
5:52 AM65 °FMostly cloudy.6 mph56%29.83 "Hg10 mi
4:52 AM67 °FPartly cloudy.8 mph53%29.81 "Hg10 mi
3:52 AM69 °FPassing clouds.3 mph49%29.81 "Hg10 mi
2:52 AM71 °FPassing clouds.5 mph45%29.80 "Hg10 mi
1:52 AM71 °FPartly cloudy.6 mph45%29.82 "Hg10 mi
12:52 AM72 °FPassing clouds.6 mph44%29.83 "Hg10 mi
11:52 PM
Thu, Sep 3
75 °FPassing clouds.8 mph39%29.83 "Hg10 mi
10:52 PM76 °FPartly cloudy.10 mph35%29.85 "Hg10 mi
9:52 PM78 °FPartly cloudy.15 mph31%29.84 "Hg10 mi
8:52 PM80 °FPartly cloudy.18 mph28%29.82 "Hg10 mi
7:52 PM83 °FPartly sunny.10 mph26%29.78 "Hg10 mi
6:52 PM84 °FBroken clouds.14 mph24%29.77 "Hg10 mi
5:52 PM86 °FScattered clouds.No wind20%29.75 "Hg10 mi
4:52 PM86 °FScattered clouds.6 mph21%29.75 "Hg10 mi
3:52 PM85 °FScattered clouds.5 mph24%29.78 "Hg10 mi
2:52 PM85 °FScattered clouds.3 mph26%29.80 "Hg10 mi
1:52 PM82 °FBroken clouds.No wind28%29.85 "Hg10 mi
12:52 PM81 °FScattered clouds.3 mph30%29.88 "Hg10 mi
11:52 AM79 °FScattered clouds.3 mph32%29.91 "Hg10 mi
Weather by CustomWeather, © 2015

See weather overviewHow to use our weather pages